www.pogodaiklimat.ru
ПОГОДА в Любляна аэропорту
Время
(UTC), дата
22 20.09
23 20.09
00 21.09
01 21.09
02 21.09
03 21.09
04 21.09
05 21.09
06 21.09
07 21.09
08 21.09
09 21.09
10 21.09
11 21.09
12 21.09
13 21.09
14 21.09
15 21.09
16 21.09
17 21.09
18 21.09
19 21.09
20 21.09
21 21.09
22 21.09
23 21.09
00 22.09
01 22.09
02 22.09
03 22.09
04 22.09
05 22.09
06 22.09
07 22.09
08 22.09
09 22.09
10 22.09
11 22.09
12 22.09
13 22.09
14 22.09
15 22.09
16 22.09
17 22.09
18 22.09
19 22.09
20 22.09
21 22.09
22 22.09
23 22.09
00 23.09
01 23.09
02 23.09
03 23.09
04 23.09
05 23.09
06 23.09
07 23.09
08 23.09
09 23.09
10 23.09
11 23.09
12 23.09
13 23.09
14 23.09
15 23.09
16 23.09
17 23.09
18 23.09
19 23.09
20 23.09
21 23.09
22 23.09
23 23.09
00 24.09
01 24.09
02 24.09
03 24.09
04 24.09
05 24.09
06 24.09
07 24.09
08 24.09
09 24.09
10 24.09
11 24.09
12 24.09
13 24.09
14 24.09
15 24.09
16 24.09
17 24.09
18 24.09
19 24.09
20 24.09
21 24.09
22 24.09
23 24.09
00 25.09
01 25.09
02 25.09
03 25.09
04 25.09
05 25.09
06 25.09
07 25.09
08 25.09
09 25.09
10 25.09
11 25.09
12 25.09
13 25.09
14 25.09
15 25.09
16 25.09
17 25.09
18 25.09
19 25.09
20 25.09
21 25.09
22 25.09
23 25.09
00 26.09
01 26.09
02 26.09
03 26.09
04 26.09
05 26.09
06 26.09
07 26.09
08 26.09
09 26.09
10 26.09
11 26.09
12 26.09
13 26.09
14 26.09
15 26.09
16 26.09
17 26.09
20 27.09
21 27.09
22 27.09
23 27.09
Ветер
(напр.,м/с)
Видим. Явления Облачность Т
(С)
Тd
(С)
f
(%)
Тe
(С)
Тes
(С)
Комфортность P
(гПа)
Po
(гПа)
Тmin
(С)
Tmax
(С)
R
(мм)
R24
(мм)
S
(см)
З 1
{2}
50 км 1/0
[Ci fib]
+10.6 +10.0 96 +10 +10 тепло 1018.6 973.1
З 1
{3}
50 км 3/0
[Ci fib]
+10.0 +9.5 97 +9 +9 тепло 1018.9 973.3
штиль 0
{1}
50 км 3/0
[Ci fib]
+9.5 +9.0 97 +9 +9 по сезону 1018.8 973.1
В 1
{2}
50 км 3/0
[Ci fib]
+9.0 +8.9 99 +8 +8 по сезону 1018.6 972.9
ЮВ 1
{1}
50 км 3/0
[Ci fib]
+8.5 +8.1 97 +8 +8 по сезону 1018.5 972.6
штиль 0
{2}
50 км 3/0
[Ci fib]
+8.5 +8.4 99 +7 +7 по сезону 1018.4 972.6
З 1
{2}
50 км 3/0
[Ci fib]
+8.2 +7.9 98 +7 +7 по сезону 1018.2 972.3

{4}
50 км 6/0
[Ac As Ci fib]
+9.1 +9.0 99 1018.6 972.8
С 1
{2}
40 км 8/1 2000 м
[Sc Ac As Ci fib]
+9.7 +9.4 98 +9 +9 по сезону 1018.8 973.2 +8.0
З 2
{3}
40 км 8/1 2000 м
[Cu Sc Ac As Ci fib]
+11.9 +11.1 95 +11 +12 тепло 1018.9 973.6
штиль 0
{2}
40 км 8/1 1500 м
[Cu Sc Ac As Ci fib]
+14.8 +12.1 84 +15 +18 тепло 1018.3 973.5
штиль 0
{2}
40 км 8/3 1300 м
[Cu Sc Ac As Ci fib]
+17.2 +12.5 74 +17 +22 тепло 1017.8 973.4
штиль 0
{2}
40 км 8/4 1300 м
[Cu Sc Ac lent Cs]
+19.2 +11.8 62 +20 +25 тепло 1017.4 973.3
Ю 2
{4}
40 км 6/4 1300 м
[Cu Sc Ac lent Ci sp]
+21.7 +13.1 58 +24 +29 комфорт 1017.0 973.2
Ю 2
{5}
30 км слаб. ливневой дождь 9/5 1080 м
[Cu Sc Ac As Ci fib]
+19.1 +14.4 74 +21 +24 комфорт 1017.3 973.2 0.0
ЮВ 2
{3}
30 км в посл. час ливневой дождь 9/6 1300 м
[Cu Sc Ac As Ci sp]
+19.8 +14.2 70 +22 +24 комфорт 1016.9 972.9
В 2
{4}
30 км 8/5 1300 м
[Cu Sc Ac As Ci fib]
+20.9 +15.0 69 +25 +26 комфорт 1016.4 972.6
В 1
{3}
30 км {ливн. дождь} 6/3 700 м
[Cu Sc Ac As Ci fib]
+20.9 +14.5 67 +25 +27 комфорт 1016.0 972.3
ЮВ 1
{2}
30 км 6/3 1000 м
[Cu Sc Ac lent Ci fib]
+20.9 +15.2 70 +25 +26 комфорт 1016.1 972.4
СЗ 1
{1}
30 км 8/3 1200 м
[Cu Sc Ac As Ci sp]
+17.5 +15.7 89 +19 +19 тепло 1016.7 972.5
З 1
{1}
30 км {ливн. дождь} 8/1 1500 м
[Sc Ac As Ci sp]
+16.0 +15.0 94 +17 +17 тепло 1017.0 972.4 0.0
СЗ 1
{1}
30 км 8/4 1500 м
[Sc Ac trans Ci fib]
+14.6 +14.1 97 +15 +15 по сезону 1017.6 972.8
штиль 0
{1}
30 км 9/9 1080 м
[Sc]
+15.1 +14.6 97 +15 +15 по сезону 1017.9 973.2
СЗ 3
{4}
30 км в посл. час дождь 9/6 1080 м
[Cu Sc Ac trans]
+15.4 +14.6 95 +15 +15 тепло 1017.8 973.2
СЗ 3
{5}
8000 м ливневой дождь 9/8 1080 м
[Cu Sc Ac trans]
+16.0 +15.7 98 +15 +15 тепло 1017.6 973.1
З 3
{4}
12 км в посл. час ливневой дождь 5/3 1080 м
[Cu Sc Ac trans]
+15.4 +14.9 97 +15 +15 тепло 1016.7 972.1
З 2
{3}
20 км {ливн. дождь, дождь} 1/1 1500 м
[Cu hum Ac trans Ci fib]
+14.3 +14.0 98 +14 +14 тепло 1017.0 972.2 8
С 1
{2}
500 м туман 5/1 1500 м
[Sc Ac trans]
+13.4 +13.2 99 +13 +13 тепло 1017.0 972.0
З 1
{2}
400 м туман ?/? +13.6 +13.6 100 +14 +14 тепло 1017.0 972.1
штиль 0
{1}
700 м туман 6/4 30 м
[Sc Ac trans]
+13.4 +13.4 100 +13 +13 тепло 1016.9 972.0
З 1
{2}
300 м туман ?/? +13.6 +13.6 100 +14 +14 тепло 1016.7 971.8
штиль 0
{2}
500 м туман ?/? +12.4 +12.4 100 +12 +12 тепло 1017.2 972.0
Ю 1
{2}
200 м туман ?/? +13.3 +13.3 100 +14 +14 тепло 1016.8 971.8 +12.2 8 7.7
штиль 0
{2}
300 м туман ?/? +13.6 +13.6 100 +13 +13 тепло 1016.9 972.0
штиль 0
{1}
2000 м дымка 10/10 60 м
[St]
+14.6 +14.6 100 +14 +14 тепло 1016.9 972.2
В 1
{2}
8000 м дымка {туман} 10/10 60 м
[St]
+16.1 +15.3 95 +17 +17 тепло 1016.7 972.2
Ю 1
{3}
15 км 4/1 180 м
[Cu hum Ac trans Ci fib]
+19.0 +16.0 83 +21 +29 комфорт 1015.7 971.7
ЮВ 1
{2}
25 км 6/3 600 м
[Cu Sc Ac trans Cs]
+20.1 +16.7 81 +24 +30 комфорт 1014.9 971.1
ЮВ 3
{4}
20 км слаб. ливневой дождь {туман} 9/3 1200 м
[Cu Sc Ac As Cs]
+20.4 +17.2 82 +24 +27 комфорт 1014.3 970.5 0.0
ЮВ 1 15 км в посл. час ливневой дождь 9/3 600 м
[Cu Sc Ac As Ci fib]
+20.2 +17.8 86 +25 +28 комфорт 1014.0 970.2
Ю 1
{2}
25 км слаб. ливневой дождь 9/8 1500 м
[Cu Sc Ac As Ci fib]
+20.2 +17.0 82 +24 +25 комфорт 1013.7 970.0
ЮВ 2
{5}
20 км слаб. ливневой дождь 9/8 900 м
[Cu Sc Ac As Cs]
+18.7 +17.0 90 +20 +21 тепло 1013.8 969.8
СВ 1
{2}
20 км в посл. час ливневой дождь 9/6 900 м
[Cu Sc Ac As Ci fib]
+18.0 +17.2 95 +19 +19 тепло 1013.1 969.1
В 1 20 км 9/6 180 м
[Cu Sc Ac As Ci fib]
+17.3 +17.0 98 +18 +18 по сезону 1013.0 968.9
Ю 1
{1}
10 км {ливн. дождь} 9/8 90 м
[Sc Ac As]
+16.8 +16.5 98 +18 +18 тепло 1013.2 969.0 +21.1 0.5
СЗ 1 12 км 9/8 90 м
[Sc Ac As]
+16.3 +16.1 99 +17 +17 тепло 1013.6 969.3
штиль 0 7000 м дымка 8/8 90 м
[Sc Ac trans]
+16.1 +15.9 99 +16 +16 тепло 1013.3 969.0
СВ 1
{1}
4000 м дымка 8/8 60 м
[Sc Ac trans]
+15.4 +15.4 100 +16 +16 тепло 1012.9 968.5
Ю 1 6000 м дымка 8/8 60 м
[Sc Ac trans]
+15.8 +15.6 99 +16 +16 тепло 1012.4 968.1
СВ 1 6000 м в посл. час ливневой дождь 9/9 60 м
[Cu Sc Ac trans]
+15.6 +15.4 99 +16 +16 тепло 1011.7 967.4
СВ 1
{1}
5000 м дымка {ливн. дождь} 9/9 30 м
[Sc]
+15.9 +15.7 99 +17 +17 тепло 1011.6 967.3 0.1
В 2
{2}
400 м туман ?/? +16.0 +16.0 100 +16 +16 тепло 1011.1 966.9
В 1
{2}
2500 м дымка 10/10 60 м
[St]
+15.7 +15.7 100 +16 +16 тепло 1010.8 966.5
Ю 1
{2}
3000 м дымка {туман} 10/10 30 м
[St]
+15.8 +15.8 100 +16 +16 тепло 1010.8 966.5
Ю 1
{1}
5000 м дымка 10/10 60 м
[St]
+15.6 +15.3 98 +16 +16 тепло 1010.4 966.1
Ю 2
{3}
6000 м дымка 10/10 90 м
[Sc]
+15.3 +15.0 98 +15 +15 тепло 1010.7 966.3
Ю 2
{3}
6000 м дымка {туман} 9/8 90 м
[Sc Ci fib]
+15.2 +14.9 98 +15 +15 тепло 1010.4 966.1 +15.2 0.1 0.6
В 1
{2}
10 км 9/8 90 м
[Sc Ac trans Ci fib]
+16.1 +14.8 92 +17 +17 тепло 1010.5 966.3
штиль 0 15 км 9/8 90 м
[Sc Ac trans Ci fib]
+16.8 +14.6 87 +17 +18 тепло 1010.4 966.3
Ю 1
{2}
15 км 9/8 90 м
[Sc Ac trans Ci fib]
+17.4 +15.4 88 +18 +20 тепло 1010.2 966.2
ЮВ 2
{3}
20 км 9/8 300 м
[Cu Sc Ac trans Ci fib]
+17.8 +15.8 88 +18 +20 тепло 1010.0 966.0
ЮВ 2
{3}
20 км 9/8 480 м
[Cu Sc Ac trans Ci fib]
+18.7 +15.8 83 +20 +22 тепло 1009.3 965.5
Ю 3
{7}
10 км слаб. ливневой дождь 10/10 300 м
[Cu Sc]
+17.8 +15.1 84 +18 +18 по сезону 1009.2 965.3 0.0
С 2
{2}
15 км в посл. час ливневой дождь 9/9 300 м
[Cu Sc Ac cuf Ci fib]
+18.2 +16.0 87 +19 +20 по сезону 1008.8 965.0
Ю 1
{4}
20 км 9/8 300 м
[Cu Sc Ac cuf Ci fib]
+19.5 +16.2 81 +23 +23 комфорт 1008.7 965.0
ЮЗ 3
{5}
20 км {ливн. дождь} 9/8 300 м
[Cu Sc Ac cuf Ci fib]
+17.7 +15.3 86 +18 +18 тепло 1009.1 965.2
ЮВ 1
{2}
30 км в посл. час ливневой дождь 8/6 600 м
[Cu Sc Ac cuf Ci ing]
+17.5 +16.4 93 +19 +19 тепло 1008.8 964.9
ЮВ 1
{2}
30 км 8/4 600 м
[Cu Sc Ac cuf Ci ing]
+16.5 +15.7 95 +17 +17 по сезону 1009.2 965.1
В 1
{1}
30 км 6/5 600 м
[Cu Sc Ac As Ci fib]
+15.4 +15.2 99 +16 +16 тепло 1009.6 965.3 +19.6 4
штиль 0
{2}
30 км 8/5 1200 м
[Cu Sc Ac As Ci fib]
+14.7 +14.5 99 +14 +14 по сезону 1010.3 965.9
штиль 0
{1}
30 км 5/4 1500 м
[Cu Sc Ac trans Ci fib]
+14.2 +14.0 99 +14 +14 по сезону 1010.4 965.9
З 1
{2}
10 км туман на расстоянии 3/1 30 м
[Cu Sc Ac trans Ci fib]
+13.1 +12.9 99 +13 +13 по сезону 1010.6 965.9
З 1 3000 м туман на расстоянии 1/1 30 м
[Sc Ac trans]
+12.4 +12.4 100 +12 +12 по сезону 1011.1 966.3
СЗ 1
{1}
3000 м туман на расстоянии 4/4 30 м
[Sc]
+12.5 +12.5 100 +12 +12 по сезону 1010.8 966.0
СЗ 2
{3}
3000 м дымка 3/3 30 м
[St]
+10.9 +10.7 99 +9 +9 по сезону 1011.4 966.2
З 1
{2}
20 км 4/3 480 м
[St Ac trans Cc]
+11.3 +11.3 100 +11 +11 по сезону 1011.4 966.4
ЮЗ 1
{2}
30 км 1/0
[Ac trans]
+10.9 +10.9 100 +10 +10 по сезону 1011.1 966.0
С 1
{1}
3000 м туман на расстоянии 4/3 30 м
[St Ac trans Ci fib]
+11.6 +11.6 100 +11 +11 по сезону 1011.4 966.4
ЮВ 1 10 км 8/5 30 м
[Sc Ac trans Ci fib]
+11.8 +11.8 100 +11 +11 тепло 1011.6 966.6
штиль 0
{1}
50 км 6/1 30 м
[St Ac trans Ci fib]
+12.0 +12.0 100 +11 +11 тепло 1011.5 966.5
штиль 0
{1}
50 км 8/1 30 м
[St Ac trans Ci fib]
+12.5 +12.5 100 +12 +12 тепло 1011.6 966.8 +10.8 4.0
С 1
{1}
50 км 8/1
[St Ac trans]
+13.5 +13.3 99 +14 +15 тепло 1012.0 967.3
З 1
{2}
50 км 8/1 1000 м
[Sc Ac trans]
+15.4 +14.4 94 +16 +18 тепло 1012.0 967.6
З 1
{2}
50 км 6/1 1000 м
[Sc Ac trans Ci fib]
+17.8 +15.2 85 +19 +24 тепло 1011.6 967.6
З 2
{3}
50 км 8/1 1000 м
[Cu med, cong Ac trans Ci fib]
+20.8 +14.9 69 +24 +29 комфорт 1011.2 967.6
Ю 1
{3}
50 км 8/4 1000 м
[Cu med, cong Ac trans Ci fib]
+22.0 +14.9 64 +25 +30 комфорт 1010.8 967.4
Ю 3
{6}
50 км 8/6 1000 м
[Cu Sc Ac trans Ci fib]
+22.4 +14.8 62 +26 +28 жарко 1010.6 967.3
ЮЗ 2
{6}
50 км 8/5 1000 м
[Cu Sc Ac trans Ci fib]
+22.0 +14.9 64 +25 +28 комфорт 1010.3 967.0
ЮЗ 3
{6}
50 км 8/3 1000 м
[Cu med, cong Ac trans Ci fib]
+22.6 +14.4 60 +26 +28 жарко 1009.9 966.7
Ю 3
{5}
50 км 6/3 1000 м
[Cu med, cong Ac trans Ci fib]
+22.5 +14.1 59 +26 +27 жарко 1009.7 966.4
Ю 2
{2}
50 км 6/4 1000 м
[Cu Sc Ac lent Ci fib]
+20.9 +15.0 69 +25 +25 комфорт 1009.6 966.1
штиль 0
{2}
50 км 6/5 1000 м
[Cu Sc Ac lent Ci fib]
+17.4 +15.6 89 +17 +17 по сезону 1009.8 965.9
ЮЗ 2
{3}
30 км 8/6 1000 м
[Cu Sc Ac trans Ci fib]
+17.2 +13.9 81 +18 +18 тепло 1010.0 965.9 +23.3
В 1
{2}
30 км 6/4 1000 м
[Cu Sc Ac trans Ci fib]
+16.0 +14.9 93 +17 +17 тепло 1010.1 965.9
В 1
{1}
30 км 9/6 1000 м
[Cu Sc Ac As]
+15.1 +14.5 96 +16 +16 тепло 1010.0 965.6
С 2
{4}
30 км 9/4 1000 м
[Cu Sc Ac As]
+16.6 +14.6 88 +17 +17 тепло 1008.9 964.9
ЮВ 1
{3}
30 км 9/8 600 м
[Cu Sc Ac As]
+16.3 +15.0 92 +17 +17 тепло 1007.6 963.5
ЮВ 2
{3}
20 км слаб. ливневой дождь 10/8 600 м
[Cu Sc Ac As]
+16.2 +15.1 93 +16 +16 тепло 1006.5 962.5
В 4
{6}
20 км слаб. ливневой дождь 10/10 600 м
[Cu Sc]
+15.9 +15.1 95 +15 +15 тепло 1005.5 961.4 0.1
ЮВ 4
{6}
20 км слаб. ливневой дождь 10/10 600 м
[Cu Sc]
+16.6 +14.8 89 +16 +16 тепло 1003.5 959.7
СВ 2
{5}
10 км 10/10 400 м
[Cu Sc]
+15.8 +15.0 95 +16 +16 тепло 1003.7 959.7
В 3
{5}
10 км ливневой дождь 10/10 750 м
[Cu Sc]
+15.3 +15.1 99 +15 +15 тепло 1002.3 958.4
В 4
{5}
10 км ливневой дождь 10/10 600 м
[Cu Sc]
+15.0 +14.8 99 +14 +14 тепло 1001.4 957.4
В 3 12 км слаб. ливневой дождь 10/9 90 м
[Cu Sc Ac As]
+14.9 +14.4 97 +14 +14 тепло 1000.0 956.0
В 3
{4}
10 км слаб. ливневой дождь 10/10 150 м
[Cu Sc]
+14.9 +14.6 98 +14 +14 тепло 999.4 955.5 +14.8 34 34.2
В 2 8000 м ливневой дождь 10/10 150 м
[Cu Sc]
+14.8 +14.5 98 +14 +14 тепло 999.4 955.4
В 2 8000 м ливневой дождь 10/10 150 м
[Cu Sc]
+15.0 +14.7 98 +15 +15 тепло 999.4 955.5
В 3
{4}
10 км слаб. ливневой дождь 10/9 150 м
[Cu Sc Ac cuf]
+15.8 +15.5 98 +15 +15 тепло 998.8 955.1
В 2 10 км слаб. ливневой дождь 9/9 150 м
[Cu Sc Ac As]
+15.9 +14.9 94 +16 +17 тепло 998.5 954.8
ЮВ 3 12 км слаб. ливневой дождь 10/9 180 м
[Cb cap Ac cuf]
+15.7 +14.4 92 +15 +15 по сезону 997.1 953.4
С 3
{6}
6000 м гроза, ливневой дождь 10/10 90 м
[Cb cap]
+15.4 +14.1 92 +15 +15 прохладно 997.0 953.2 19
ЮВ 3 12 км гроза, ливневой дождь 10/9 180 м
[Cb cap Ac cuf]
+15.2 +14.2 94 +14 +15 холодно 995.3 951.6
В 1 15 км слаб. ливневой дождь 10/9 90 м
[Cb cap Ac cuf]
+15.9 +15.1 95 +17 +17 прохладно 994.6 951.1
В 6
{9}
15 км в посл. час ливневой дождь {гроза} 9/8 150 м
[Cb cap Ac cuf Ci sp]
+16.7 +15.4 92 +16 +16 по сезону 993.4 950.0
ЮЗ 3 12 км в посл. час гроза 10/9 90 м
[Cb cap Ac cuf]
+16.0 +15.2 95 +15 +15 по сезону 993.0 949.5
В 4 15 км слаб. ливневой дождь 10/8 90 м
[Cb cap Ac cuf]
+15.4 +14.6 95 +14 +14 прохладно 992.6 949.0
ЮЗ 5
{10}
3000 м гроза, ливневой дождь 10/10 300 м
[Cb cap]
+13.2 +11.6 90 +11 +11 по сезону 993.4 949.4 +17.1 37
СЗ 2 10 км слаб. ливневой дождь, в посл. час гроза 10/10 300 м
[Cu Sc]
+12.9 +12.3 96 +12 +12 по сезону 992.5 948.5
В 1
{2}
10 км слаб. дождь 10/10 90 м
[Sc]
+12.1 +11.8 98 +12 +12 по сезону 994.1 949.9
З 2
{4}
10 км слаб. дождь {гроза} 10/10 90 м
[Sc]
+11.9 +11.6 98 +11 +11 по сезону 992.7 948.6
СЗ 8
{12}
10 км в посл. час дождь 10/9 300 м
[Sc Ac As]
+9.7 +7.1 84 +6 +6 холодно 993.0 948.4
СЗ 5
{9}
10 км 10/9 300 м
[Cu Sc Ac As]
+9.6 +6.0 78 +6 +6 прохладно 993.3 948.8
СЗ 6
{10}
10 км слаб. ливневой дождь {гроза} 10/10 300 м
[Cu Sc]
+7.7 +5.8 88 +3 +3 холодно 993.7 948.8 17
СЗ 5 10 км ливневой дождь 10/10 300 м
[Cu Sc]
+7.3 +6.1 92 +3 +3 прохладно 995.0 950.0
СЗ 3
{9}
10 км слаб. ливневой дождь 10/10 300 м
[Cu Sc]
+7.3 +5.3 87 +4 +4 прохладно 995.5 950.5
З 3
{7}
10 км слаб. ливневой дождь 9/9 1200 м
[Cu Sc]
+7.1 +5.6 90 +4 +4 прохладно 995.6 950.6
С 2
{5}
10 км слаб. ливневой дождь 10/10 1080 м
[Cu Sc]
+7.5 +5.0 84 +5 +5 по сезону 995.9 950.9
В 1
{3}
15 км слаб. дождь 10/10 1000 м
[Sc]
+6.8 +6.4 97 +6 +6 по сезону 995.7 950.6
Ю 2
{4}
15 км в посл. час дождь {ливн. дождь} 9/6 300 м
[Sc Ac As]
+6.9 +6.5 97 +4 +5 прохладно 995.5 950.4 +6.7 27 63.7
В 2 15 км 8/6 300 м
[Cu Sc Ac As]
+7.6 +7.0 96 +5 +6 по сезону 995.7 950.7
В 3 20 км 8/6 300 м
[Cu Sc Ac As]
+8.6 +7.2 91 +6 +7 по сезону 996.6 951.7
Ю 1
{5}
30 км 8/6 300 м
[Cu Sc Ac trans]
+9.5 +6.9 84 +9 +11 прохладно 997.3 952.6
ЮВ 2
{4}
30 км 8/6 400 м
[Cu Sc Ac trans]
+10.5 +6.8 78 +9 +12 прохладно 997.8 953.1
ЮВ 2
{4}
30 км 8/5 400 м
[Cu Sc Ac trans]
+11.6 +7.3 75 +11 +14 по сезону 997.9 953.5
ЮЗ 1
{3}
30 км 9/6 600 м
[Cu Sc Ac As]
+12.3 +7.8 74 +12 +14 прохладно 998.3 954.0
Ю 1
{3}
30 км 8/4 600 м
[Cu Sc Ac As]
+13.2 +7.0 66 +14 +16 прохладно 998.2 954.0
З 1
{3}
30 км 8/1 900 м
[Cu Sc Ac trans]
+13.9 +5.5 57 +14 +17 прохладно 998.3 954.1
Ю 1
{3}
30 км 8/1 900 м
[Cu Sc Ac trans Ci fib]
+13.6 +7.6 67 +14 +15 по сезону 998.7 954.5
Ю 2
{3}
30 км 6/1 900 м
[Cu Sc Ac trans Ci fib]
+12.3 +9.0 80 +11 +12 прохладно 999.3 954.9
штиль 0
{1}
30 км 4/1 900 м
[Cu Sc Ac trans Ci fib]
+9.5 +8.6 94 +9 +9 холодно 1000.1 955.2
СЗ 3
{4}
15 км слаб. дождь 10/10 1500 м
[Sc]
+10.0 +9.4 96 +8 +8 холодно 1007.3 962.2
Ю 1
{3}
10 км дождь 10/10 1200 м
[Sc]
+10.0 +9.4 96 +9 +9 по сезону 1007.0 961.9
СЗ 1
{2}
10 км дождь 10/10 1200 м
[Sc]
+9.8 +9.0 95 +9 +9 по сезону 1006.1 961.0
З 2
{4}
10 км слаб. дождь 10/10 1200 м
[Sc]
+9.4 +9.1 98 +8 +8 по сезону 1004.6 959.5
Местоположение метеостанции Любляна аэропорт (Словения): широта 46.22 долгота 14.48 высота над уровнем моря 385 м.
В архиве по умолчанию представлена погода в Любляна аэропорту за последнюю неделю. Архивные данные за месяц целиком и за предыдущие месяцы, начиная с января 2011 года, Вы можете получить, выбрав интересующий диапазон дат из раскрывающегося списка и нажав кнопку "Найти!".
*Определитесь, кто Вы:
Внимание! Время в таблицах - всемирное. Для получения местного времени необходимо прибавить поправку, которая равна 1 ч.
Смотрите также архив погоды в соседних городах и на ближайших метеорологических станциях:
Партнеры нашего сайта:      
Пояснения к столбцам:
  • Ветер - указаны скорость ветра в м/с - средняя за 10 мин, порывы в срок и между сроками (в фигурных скобках) и направление, откуда дует ветер: С - северный,
  • СВ - северо-восточный, В - восточный, ЮВ - юго-восточный, Ю - южный, ЮЗ - юго-западный, З - западный, СЗ - северо-западный.
  • Видимость - горизонтальная дальность видимости в метрах или километрах. При видимости от 1 до 10 км при отсутствии осадков обычно наблюдается дымка, при ухудшении видимости до 1 км и менее - туман. В сухую погоду видимость может ухудшаться дымом, пылью или мглою.
  • Явления - указаны атмосферные явления, наблюдавшиеся в срок или в последний час перед сроком; фигурными скобками обозначены явления, наблюдавшиеся между сроками (за 1-3 часа до срока); квадратными скобками обозначены град или гололедные отложения с указанием их диаметра в мм.
  • Облачность - указаны через наклонную черту общая и нижняя облачность в баллах и высота нижней границы облаков в метрах; квадратными скобками обозначены формы облаков: Ci - перистые, Cs - перисто-слоистые, Cc - перисто-кучевые, Ac - высококучевые, As - высокослоистые, Sc - слоисто-кучевые, Ns - слоисто-дождевые, Cu - кучевые, Cb - кучево-дождевые. Подробнее классификацию облаков см. в Атласе облаков (PDF).
  • T - Температура воздуха - температура, измеренная на высоте 2 м над землей.
  • Td - Температура точки росы - температура, при понижении до которой содержащийся в воздухе водяной пар достигнет насыщения.
  • f - Относительная влажность воздуха - влажноcть воздуха, измеренная на высоте 2 м над землей.
  • Te - Эффективная температура - температура, которую ощущает одетый по сезону человек в тени. Характеристика душности погоды. При расчете учитывается влияние влажности воздуха и скорости ветра на теплоощущения человека.
  • Tes - Эффективная температура на солнце - температура, которую ощущает человек, с поправкой на солнечный нагрев. Характеристика знойности погоды. Зависит от высоты солнца над горизонтом, облачности и скорости ветра. Ночью, в пасмурную погоду, а также при ветре 12 м/с и более поправка равна нулю.
  • P - Атмосферное давление - приведенное к уровню моря атмосферное давление.
  • Po - Атмосферное давление - измеренное на уровне метеостанции атмосферное давление.
  • Tmin - Минимальная температура - минимум температуры воздуха на высоте 2 м над землей.
  • Tmax - Максимальная температура - максимум температуры воздуха на высоте 2 м над землей.
  • R - Количество осадков - Количество выпавших осадков за период времени, мм. При наведении курсора мыши на число - период времени, за который выпало указанное количество осадков.
  • R24 - Количество осадков - Количество выпавших осадков за 24 часа, мм.
  • S - Снежный покров - Высота снежного покрова, см. При наведении курсора мыши на число - состояние снежного покрова и степень покрытия местности в баллах.